Location: Unspecified
(0.0000°N, 0.0000°E)
Time: 21:55:45
(UTC+01:00)

ARIANE 5 R/B - Visible Passes

Search period start: 23 February 2017 00:00
Search period end: 05 March 2017 00:00
Orbit: 648 x 38453 km, 7.2° (Epoch: 22 February)

Date Brightness Start Highest point End Pass type
(mag) Time Alt. Az. Time Alt. Az. Time Alt. Az.
23 Feb 10.0 22:13:41 10° E 01:34:49 30° E 03:02:41 10° E visible
24 Feb 10.2 23:07:13 10° E 00:38:11 16° E 01:36:30 10° E visible
25 Feb 9.8 04:47:00 10° W 06:21:32 10° W 06:26:34 10° W visible
26 Feb 9.4 03:09:30 10° W 05:30:49 24° W 07:30:38 10° W visible
27 Feb 9.1 01:57:45 10° W 04:40:11 38° W 08:14:07 10° W visible
28 Feb 6.3 00:52:45 10° W 03:49:37 52° W 11:46:01 10° E visible
28 Feb 7.0 23:50:54 10° W 02:59:09 67° W 10:48:42 10° E visible
01 Mar 7.8 22:50:48 10° W 02:08:42 81° WNW 09:51:15 10° E visible
02 Mar 8.2 21:51:47 10° W 22:27:33 80° N 08:53:34 10° E visible
03 Mar 7.7 20:53:28 10° WNW 21:13:43 77° N 07:55:30 10° E visible
